Tracking 27422 objects as of 31-May-2023
HD Live streaming from Space Station
objects crossing your sky now

STARLINK-4448

Track STARLINK-4448 now!
10-day predictions
STARLINK-4448 is classified as:


NORAD ID: 53504
Int'l Code: 2022-099AR
Perigee: 568.7 km
Apogee: 571.6 km
Inclination: 97.7 °
Period: 95.9 minutes
Semi major axis: 6941 km
RCS: Unknown
Launch date: August 12, 2022
Source: United States (US)
Launch site: AIR FORCE WESTERN TEST RANGE (AFWTR)
Your satellite tracking list
Your tracking list is empty




NASA's NSSDC Master Catalog

Two Line Element Set (TLE):
1 53504U 22099AR  23150.29153883  .00000212  00000-0  21135-4 0  9990
2 53504  97.6564 271.6315 0002077 165.3896 194.7389 15.01261383 43799
Source of the keplerian elements: AFSPC